Previsão horária em Abadia

Hoje, 15 Janeiro, Sexta-feira

Tempo Temperatura Precipitação Vento Pressão Humidade
00:00 +2°C° 0 mm 3 m/s 730 mmHg 73%
01:00 +3°C° 0 mm 2 m/s 730 mmHg 74%
02:00 +3°C° 0 mm 2 m/s 730 mmHg 74%
03:00 +2°C° 0 mm 2 m/s 730 mmHg 75%
04:00 +2°C° 0 mm 2 m/s 730 mmHg 75%
05:00 +2°C° 0 mm 2 m/s 730 mmHg 75%
06:00 +2°C° 0 mm 2 m/s 730 mmHg 76%
07:00 +2°C° 0 mm 2 m/s 730 mmHg 74%
08:00 +3°C° 0 mm 2 m/s 730 mmHg 71%
09:00 +5°C° 0 mm 1 m/s 730 mmHg 69%
10:00 +7°C° 0 mm 1 m/s 730 mmHg 65%
11:00 +9°C° 0 mm 1 m/s 730 mmHg 62%
12:00 +11°C° 0 mm 1 m/s 730 mmHg 58%
13:00 +11°C° 0 mm 1 m/s 730 mmHg 60%
14:00 +10°C° 0 mm 2 m/s 730 mmHg 63%
15:00 +10°C° 0 mm 2 m/s 729 mmHg 65%
16:00 +8°C° 0 mm 2 m/s 729 mmHg 71%
17:00 +5°C° 0 mm 2 m/s 729 mmHg 77%
18:00 +3°C° 0 mm 2 m/s 728 mmHg 82%
19:00 +3°C° 0 mm 2 m/s 729 mmHg 81%
20:00 +3°C° 0 mm 2 m/s 729 mmHg 79%
21:00 +2°C° 0 mm 2 m/s 729 mmHg 77%
22:00 +2°C° 0 mm 2 m/s 730 mmHg 73%
23:00 +2°C° 0 mm 2 m/s 730 mmHg 69%

Amanhã, 16 Janeiro, Sábado

Tempo Temperatura Precipitação Vento Pressão Humidade
00:00 +3°C° 0 mm 1 m/s 730 mmHg 65%
01:00 +3°C° 0 mm 1 m/s 730 mmHg 63%
02:00 +3°C° 0 mm 1 m/s 730 mmHg 61%
03:00 +3°C° 0 mm 1 m/s 729 mmHg 59%
04:00 +3°C° 0 mm 1 m/s 729 mmHg 58%
05:00 +3°C° 0 mm 1 m/s 729 mmHg 57%
06:00 +3°C° 0 mm 2 m/s 730 mmHg 56%
07:00 +3°C° 0 mm 2 m/s 730 mmHg 54%
08:00 +5°C° 0 mm 1 m/s 730 mmHg 53%
09:00 +6°C° 0 mm 1 m/s 730 mmHg 52%
10:00 +8°C° 0 mm 1 m/s 730 mmHg 49%
11:00 +11°C° 0 mm 1 m/s 730 mmHg 46%
12:00 +13°C° 0 mm 1 m/s 730 mmHg 43%
13:00 +13°C° 0 mm 1 m/s 730 mmHg 46%
14:00 +14°C° 0 mm 1 m/s 729 mmHg 49%
15:00 +14°C° 0 mm 1 m/s 729 mmHg 52%
16:00 +11°C° 0 mm 1 m/s 729 mmHg 58%
17:00 +9°C° 0 mm 1 m/s 729 mmHg 65%
18:00 +6°C° 0 mm 1 m/s 729 mmHg 71%
19:00 +6°C° 0 mm 1 m/s 729 mmHg 67%
20:00 +6°C° 0 mm 1 m/s 730 mmHg 64%
21:00 +5°C° 0 mm 1 m/s 730 mmHg 60%
22:00 +5°C° 0 mm 1 m/s 730 mmHg 58%
23:00 +5°C° 0 mm 1 m/s 730 mmHg 55%

Depois de amanhã, 17 Janeiro, Domingo

Tempo Temperatura Precipitação Vento Pressão Humidade
00:00 +5°C° 0 mm 1 m/s 731 mmHg 52%
01:00 +4°C° 0 mm 1 m/s 730 mmHg 51%
02:00 +4°C° 0 mm 1 m/s 730 mmHg 49%
03:00 +4°C° 0 mm 1 m/s 730 mmHg 47%
04:00 +4°C° 0 mm 1 m/s 729 mmHg 46%
05:00 +4°C° 0 mm 1 m/s 729 mmHg 45%
06:00 +4°C° 0 mm 1 m/s 729 mmHg 44%
07:00 +5°C° 0 mm 1 m/s 730 mmHg 44%
08:00 +6°C° 0 mm 1 m/s 730 mmHg 44%
09:00 +7°C° 0 mm 1 m/s 730 mmHg 44%
10:00 +9°C° 0 mm 1 m/s 730 mmHg 42%
11:00 +11°C° 0 mm 1 m/s 730 mmHg 41%
12:00 +13°C° 0 mm 1 m/s 731 mmHg 39%
13:00 +14°C° 0 mm 1 m/s 730 mmHg 42%
14:00 +14°C° 0 mm 1 m/s 729 mmHg 45%
15:00 +14°C° 0 mm 1 m/s 728 mmHg 49%
16:00 +11°C° 0 mm 1 m/s 728 mmHg 57%
17:00 +9°C° 0 mm 1 m/s 728 mmHg 65%
18:00 +7°C° 0 mm 1 m/s 728 mmHg 73%
19:00 +7°C° 0 mm 1 m/s 728 mmHg 73%
20:00 +6°C° 0 mm 1 m/s 729 mmHg 73%
21:00 +6°C° 0 mm 1 m/s 729 mmHg 73%
22:00 +6°C° 0 mm 1 m/s 729 mmHg 72%
23:00 +6°C° 0 mm 1 m/s 729 mmHg 72%

18 Janeiro, Segunda-feira

Tempo Temperatura Precipitação Vento Pressão Humidade
00:00 +5°C° 0 mm 1 m/s 729 mmHg 72%
01:00 +5°C° 0 mm 1 m/s 729 mmHg 71%
02:00 +5°C° 0 mm 1 m/s 728 mmHg 70%
03:00 +5°C° 0 mm 1 m/s 728 mmHg 69%
04:00 +5°C° 0 mm 1 m/s 728 mmHg 70%
05:00 +5°C° 0 mm 1 m/s 728 mmHg 70%
06:00 +5°C° 0 mm 1 m/s 728 mmHg 70%
07:00 +5°C° 0 mm 1 m/s 728 mmHg 68%
08:00 +6°C° 0 mm 1 m/s 728 mmHg 67%
09:00 +7°C° 0 mm 1 m/s 729 mmHg 65%
10:00 +9°C° 0 mm 1 m/s 728 mmHg 61%
11:00 +11°C° 0 mm 1 m/s 728 mmHg 56%
12:00 +14°C° 0 mm 1 m/s 728 mmHg 52%
13:00 +14°C° 0 mm 1 m/s 728 mmHg 53%
14:00 +14°C° 0 mm 1 m/s 727 mmHg 55%
15:00 +14°C° 0 mm 1 m/s 726 mmHg 56%
16:00 +12°C° 0 mm 1 m/s 726 mmHg 65%
17:00 +9°C° 0 mm 1 m/s 726 mmHg 75%
18:00 +7°C° 0 mm 1 m/s 726 mmHg 84%
19:00 +7°C° 0 mm 1 m/s 726 mmHg 82%
20:00 +6°C° 0 mm 1 m/s 727 mmHg 79%
21:00 +6°C° 0 mm 1 m/s 727 mmHg 77%
22:00 +6°C° 0 mm 1 m/s 727 mmHg 76%
23:00 +5°C° 0 mm 1 m/s 727 mmHg 75%

19 Janeiro, Terça-feira

Tempo Temperatura Precipitação Vento Pressão Humidade
00:00 +5°C° 0 mm 1 m/s 727 mmHg 74%
01:00 +5°C° 0 mm 1 m/s 727 mmHg 74%
02:00 +5°C° 0 mm 1 m/s 726 mmHg 75%
03:00 +4°C° 0 mm 1 m/s 726 mmHg 75%
04:00 +4°C° 0 mm 1 m/s 726 mmHg 75%
05:00 +4°C° 0 mm 1 m/s 726 mmHg 75%
06:00 +4°C° 0 mm 1 m/s 726 mmHg 75%
07:00 +4°C° 0 mm 1 m/s 726 mmHg 75%
08:00 +5°C° 0 mm 1 m/s 726 mmHg 75%
09:00 +5°C° 0 mm 1 m/s 726 mmHg 75%
10:00 +6°C° 0 mm 2 m/s 726 mmHg 72%
11:00 +7°C° 0 mm 2 m/s 726 mmHg 69%
12:00 +8°C° 0 mm 3 m/s 725 mmHg 66%
13:00 +8°C° 0 mm 3 m/s 725 mmHg 69%
14:00 +8°C° 0 mm 3 m/s 724 mmHg 73%
15:00 +8°C° 0 mm 3 m/s 724 mmHg 77%
16:00 +8°C° 0 mm 3 m/s 724 mmHg 81%
17:00 +7°C° 0 mm 2 m/s 724 mmHg 85%
18:00 +6°C° 0 mm 2 m/s 724 mmHg 89%
19:00 +6°C° 0 mm 2 m/s 724 mmHg 89%
20:00 +7°C° 0 mm 2 m/s 724 mmHg 89%
21:00 +7°C° 0 mm 2 m/s 724 mmHg 89%
22:00 +7°C° 0 mm 3 m/s 723 mmHg 89%
23:00 +7°C° 0 mm 3 m/s 723 mmHg 89%

20 Janeiro, Quarta-feira

Tempo Temperatura Precipitação Vento Pressão Humidade
00:00 +7°C° 0 mm 3 m/s 722 mmHg 89%
01:00 +7°C° 0.1 mm 3 m/s 722 mmHg 89%
02:00 +7°C° 0.1 mm 3 m/s 721 mmHg 90%
03:00 +6°C° 0.1 mm 4 m/s 721 mmHg 90%
04:00 +6°C° 0.4 mm 4 m/s 720 mmHg 92%
05:00 +6°C° 0.4 mm 4 m/s 719 mmHg 93%
06:00 +6°C° 0.4 mm 4 m/s 719 mmHg 94%
07:00 +6°C° 3.7 mm 4 m/s 718 mmHg 95%
08:00 +6°C° 3.7 mm 4 m/s 718 mmHg 96%
09:00 +6°C° 3.7 mm 4 m/s 718 mmHg 96%
10:00 +6°C° 3.4 mm 4 m/s 717 mmHg 97%
11:00 +8°C° 3.4 mm 3 m/s 717 mmHg 97%
12:00 +8°C° 3.4 mm 3 m/s 717 mmHg 97%
13:00 +8°C° 1.8 mm 3 m/s 716 mmHg 97%
14:00 +9°C° 1.8 mm 3 m/s 716 mmHg 96%
15:00 +9°C° 1.8 mm 3 m/s 715 mmHg 96%
16:00 +9°C° 1.4 mm 3 m/s 715 mmHg 97%
17:00 +9°C° 1.4 mm 2 m/s 716 mmHg 97%
18:00 +9°C° 1.4 mm 2 m/s 716 mmHg 98%
19:00 +9°C° 0.5 mm 2 m/s 716 mmHg 98%
20:00 +9°C° 0.5 mm 2 m/s 717 mmHg 98%
21:00 +9°C° 0.5 mm 3 m/s 717 mmHg 98%
22:00 +9°C° 0.1 mm 2 m/s 718 mmHg 98%
23:00 +9°C° 0.1 mm 2 m/s 718 mmHg 98%
Mostrar mais